Location: ICStars Ranch
(38.8297°N, 93.7687°W)
Time: 01:47:58
(UTC-05:00)

Daily predictions for brighter satellites

Satellite Brightness Start Highest point End
(mag) Time Altitude Azimuth Time Altitude Azimuth Time Altitude Azimuth
ATLAS CENTAUR R/B 3.1 00:09:13 28° N 00:09:13 28° N 00:11:18 10° NNE
Cosmos 1428 Rocket 4.4 00:08:01 79° SW 00:08:22 84° W 00:14:44 10° N
S3M 3.9 00:05:53 10° N 00:11:58 78° ENE 00:11:58 78° ENE
H-2A R/B 3.8 00:14:15 26° WNW 00:14:15 26° WNW 00:16:41 10° NNW
Meteor 2-11 Rocket 4.3 00:09:18 10° N 00:15:28 81° W 00:15:28 81° W
Cosmos 2227 Rocket 2.6 00:16:07 10° NNW 00:21:18 53° NE 00:21:18 53° NE
CZ-2C R/B 3.2 00:19:22 10° NNE 00:23:17 50° NE 00:23:17 50° NE
Cosmos 2219 3.9 00:20:36 10° NW 00:25:31 45° W 00:25:31 45° W
CZ-4B R/B 4.3 00:21:32 10° N 00:26:01 43° WNW 00:26:01 43° WNW
Meteor 1-11 Rocket 4.1 00:31:22 59° NE 00:31:22 59° NE 00:36:30 10° NNE
Cosmos 1553 Rocket 4.1 00:24:39 10° NNW 00:30:59 69° W 00:30:59 69° W
Mayak 1.0 00:35:12 10° NNE 00:36:40 20° NE 00:36:40 20° NE
Cosmos 2369 4.0 00:42:04 60° NNE 00:42:04 60° NNE 00:46:44 10° NNE
Meteor 2-4 Rocket 4.2 00:40:01 10° N 00:44:16 52° NNE 00:44:16 52° NNE
Cosmos 1980 Rocket 3.9 00:48:17 22° ENE 00:48:17 22° ENE 00:50:53 10° NE
Cosmos 2266 Rocket 4.1 01:01:30 65° WNW 01:01:30 65° WNW 01:07:20 10° N
Cosmos 2315 Rocket 4.0 01:04:20 10° N 01:10:00 75° N 01:10:00 75° N
Cosmos 1697 Rocket 3.2 01:14:59 54° NNE 01:14:59 54° NNE 01:19:18 10° NNE
Cosmos 2297 Rocket 2.9 01:10:48 10° NNW 01:15:01 49° NW 01:15:01 49° NW
USA 234 4.5 01:19:56 10° ENE 01:23:38 27° E 01:23:38 27° E
SL-16 R/B 4.1 01:30:23 19° E 01:30:23 19° E 01:33:08 10° NE
CZ-4C R/B 3.4 01:28:21 10° NNW 01:35:24 55° NE 01:38:04 39° ESE
Cosmos 2322 Rocket 3.9 01:38:35 23° E 01:38:35 23° E 01:41:54 10° NE
USA 229 DEB 3.9 01:42:08 58° W 01:42:50 61° NW 01:49:43 10° NNE
USA 229 3.9 01:42:16 59° W 01:42:56 62° NW 01:49:49 10° NNE
Cosmos 1140 Rocket 4.2 01:41:24 10° NNW 01:45:27 50° NNE 01:45:27 50° NNE
NOSS 3-1 (A) 4.1 01:50:00 44° E 01:50:00 44° E 01:54:50 10° NE
Cosmos 1238 Rocket 4.0 01:51:24 10° N 01:55:51 64° NNW 01:55:51 64° NNW
CZ-4B R/B 4.4 02:01:35 15° NNW 02:01:35 15° NNW 02:02:18 10° NNW
Cosmos 2227 Rocket 4.3 02:01:21 10° NW 02:03:06 16° WNW 02:03:06 16° WNW
Nadezhda 1 Rocket 3.9 02:00:01 10° N 02:05:55 77° NE 02:05:55 77° NE
Cosmos 1066 Rocket 4.5 02:02:33 10° N 02:07:01 61° N 02:07:01 61° N
Mayak 1.3 02:11:48 10° NNW 02:13:19 15° NW 02:13:19 15° NW
CZ-2D R/B 4.3 02:15:21 10° ENE 02:18:20 15° E 02:19:20 14° ESE
Cosmos 2263 Rocket 3.5 02:17:32 10° N 02:22:44 35° ENE 02:24:59 25° ESE
Cosmos 1386 Rocket 4.4 02:24:22 76° NW 02:24:22 76° NW 02:30:09 10° N
Cosmos 1461 4.5 02:22:19 10° NNW 02:24:57 35° N 02:24:57 35° N
Cosmos 2360 Rocket 3.6 02:29:01 26° ESE 02:29:03 26° ESE 02:33:39 10° NE
Cosmos 1980 Rocket 3.0 02:30:03 39° WNW 02:30:03 39° WNW 02:35:17 10° N
SL-16 R/B 4.2 02:26:51 14° ESE 02:31:06 28° ENE 02:36:18 10° N
NOSS 3-1 (C) 3.7 02:32:24 55° WNW 02:32:46 56° NW 02:39:05 10° NNE
ISS -0.7 02:31:42 10° NNW 02:33:43 15° NNE 02:35:43 10° ENE
USA 81 4.3 02:37:16 10° N 02:41:47 62° NW 02:41:47 62° NW
Cosmos 1850 Rocket 4.5 02:40:29 10° NNW 02:44:44 53° NW 02:44:44 53° NW
Cosmos 2181 Rocket 4.1 02:41:43 10° N 02:48:08 72° E 02:49:21 58° SE
Cosmos 1437 Rocket 4.1 02:54:20 40° N 02:54:20 40° N 02:57:05 10° N
Cosmos 1110 Rocket 3.9 02:58:42 81° ENE 02:58:42 81° ENE 03:03:40 10° NNE
Meteor 1-4 Rocket 4.4 03:04:51 28° NE 03:04:51 28° NE 03:07:04 10° NNE
IRS-1D 4.5 02:59:33 10° NNE 03:04:06 35° E 03:04:48 34° ESE
NOSS 2-3 (D) 4.5 03:08:09 44° ESE 03:08:09 44° ESE 03:12:56 10° NE
Meteor 1-15 Rocket 4.4 03:07:12 57° SE 03:08:01 64° E 03:13:40 10° NNE
USA 234 3.4 03:02:27 10° NE 03:08:56 67° NW 03:10:58 45° WSW
Meteor 1-21 4.2 03:04:57 10° NNW 03:10:17 61° W 03:10:17 61° W
SL-16 R/B 2.5 03:12:15 50° W 03:12:43 51° WNW 03:18:15 10° NNE
Cosmos 2058 Rocket 4.4 03:15:37 31° ESE 03:16:25 33° E 03:20:28 10° NNE
Cosmos 2074 Rocket 4.1 03:15:33 48° SSE 03:17:18 71° E 03:23:34 10° NNE
Meteor 2-9 Rocket 4.2 03:17:11 63° WSW 03:17:45 67° W 03:23:37 10° N
OAO 3 Rocket 4.2 03:21:51 34° ESE 03:21:51 34° ESE 03:24:54 10° E
Cosmos 2322 Rocket 2.8 03:20:24 42° W 03:21:06 43° WNW 03:26:33 10° N
SL-08 R/B 3.2 03:22:22 70° WNW 03:22:22 70° WNW 03:26:36 10° NNW
CZ-4C R/B 3.6 03:17:17 10° NW 03:23:10 34° WSW 03:23:10 34° WSW
Cosmos 44 3.5 03:21:18 10° NNW 03:25:38 59° ENE 03:27:11 37° ESE
ADEOS Rocket 2.9 03:21:29 10° N 03:27:40 69° WNW 03:28:47 56° SW
Helios 1A Rocket 4.3 03:25:00 10° N 03:27:47 28° NW 03:27:47 28° NW
ARIANE 5 R/B 2.9 03:25:19 10° NNE 03:30:24 59° E 03:31:41 45° SSE
Uosat 12 SS-18 rocket 4.2 03:32:00 72° WSW 03:32:27 80° WNW 03:38:01 10° NNE
COBE Rocket 4.2 03:27:25 10° N 03:32:28 55° WNW 03:32:55 53° W
ATLAS 2AS CENTAUR R/B 3.2 03:31:06 39° S 03:34:07 65° ESE 03:42:08 10° NE
Resurs 1-4 Rocket 2.1 03:30:01 10° NNE 03:35:18 77° ESE 03:36:32 53° S
Cosmos 1726 Rocket 3.4 03:37:54 78° SSE 03:38:09 85° E 03:42:35 10° N
BREEZE M DEB (TANK) 4.5 03:37:16 11° NNW 03:38:13 12° N 03:39:35 10° NNE
IRS-1C 4.1 03:33:11 10° N 03:38:30 68° WNW 03:39:27 56° SW
Cosmos 1331 Rocket 4.4 03:38:48 44° W 03:39:20 46° WNW 03:44:19 10° N
AQUA 4.1 03:36:57 10° N 03:41:34 50° WNW 03:41:53 49° W
ERS-1 4.3 03:39:04 10° NNE 03:44:09 84° WNW 03:45:13 57° SSW
SL-8 R/B 3.7 03:43:49 59° W 03:44:39 75° NNW 03:49:30 10° NE
NOSS 2-3 (E) 3.8 03:45:48 60° WSW 03:46:38 77° NW 03:52:01 10° NNE
Cosmos 1606 Rocket 3.7 03:52:34 52° W 03:52:46 53° W 03:57:08 10° N
Cosmos 389 Rocket 4.3 03:51:44 21° SE 03:52:55 26° E 03:55:58 10° NE
CZ-2D R/B 4.5 03:49:09 10° NNE 03:53:15 42° E 03:54:50 29° SSE
Cosmos 2237 4.1 03:53:17 44° SSW 03:55:12 88° ESE 04:00:55 10° NNE
MOS 1 Rocket 3.1 03:51:58 10° NNE 03:56:29 78° E 03:57:37 49° S
UNK 3.8 03:57:26 53° SW 03:58:01 57° W 04:02:36 10° NNW
BREEZE-M DEB (TANK) 3.6 03:57:13 36° S 03:58:42 49° SE 04:10:52 10° NE
CZ-2D R/B 2.2 03:53:24 10° N 03:58:51 67° WNW 04:00:38 42° SW
Aureole 2 Rocket 4.3 03:57:29 23° SE 03:59:08 32° ESE 04:02:47 10° NE
Cosmos 1271 Rocket 3.1 03:59:30 44° SSE 04:00:31 63° E 04:04:29 10° NNE
Cosmos 1486 Rocket 3.9 03:57:11 10° NNW 04:02:28 69° WSW 04:04:53 32° S
DELTA 2 R/B (1) 3.5 04:00:34 39° WSW 04:02:41 82° SSE 04:08:16 10° E
Meteor 2-8 Rocket 4.4 03:57:46 10° N 04:03:54 85° E 04:08:36 18° S
ATLAS 3B R/B 3.6 03:59:53 10° NNW 04:06:24 48° NE 04:12:38 10° SE
Cosmos 2263 Rocket 2.9 04:01:33 10° NW 04:06:32 32° WSW 04:06:36 32° WSW
UNKNOWN OBJECT B 2.8 04:04:35 10° NNE 04:08:26 74° ESE 04:09:32 45° S
Lacrosse 5 rocket 4.3 04:05:53 10° NNW 04:08:41 18° NNE 04:11:35 10° ENE
ISS -3.8 04:07:44 13° NW 04:10:38 79° NE 04:13:52 10° SE
Meteor 2-19 Rocket 4.4 04:07:51 27° S 04:11:29 88° E 04:17:40 10° N
Cosmos 44 Rocket 3.5 04:07:07 10° NW 04:11:34 42° WSW 04:11:53 42° SW
Cosmos 2360 Rocket 2.9 04:10:47 30° WSW 04:12:47 41° WNW 04:18:07 10° N
SL-16 R/B 2.8 04:11:56 31° SSW 04:14:25 46° W 04:20:26 10° NNW
Cosmos 1354 Rocket 4.1 04:10:30 10° NNW 04:15:49 79° ENE 04:21:08 10° SSE
BREEZE M DEB (TANK) 2.4 04:14:41 27° NW 04:16:00 81° NE 04:20:56 10° ESE
Cosmos 2219 Rocket 2.7 04:12:53 23° S 04:16:22 56° ESE 04:21:55 10° NNE
Iridium 4 Rocket 4.0 04:15:39 33° SW 04:17:59 51° W 04:23:29 10° N
COSMOS 2428 2.7 04:16:07 32° SSW 04:18:56 83° WNW 04:24:43 10° NNE
Cosmos 1758 Rocket 4.2 04:15:01 10° NNW 04:18:57 34° W 04:19:13 33° W
Cosmos 2237 Rocket 3.6 04:16:07 10° SSE 04:20:59 32° ESE 04:25:55 10° NE
Cosmos 1544 3.8 04:24:18 20° SSE 04:26:34 51° E 04:30:11 10° NNE
Cosmos 1844 Rocket 2.8 04:21:17 10° NNW 04:26:59 78° ENE 04:32:39 10° SSE
Cosmos 2228 3.6 04:27:01 33° WSW 04:28:04 39° WNW 04:32:07 10° N
Cosmos 1932 4.4 04:21:50 10° NNW 04:28:22 84° WSW 04:34:44 10° SSE
USA 238 DEB 4.4 04:23:21 10° NNW 04:30:22 59° NE 04:37:24 10° SE
USA 238 4.4 04:23:28 10° NNW 04:30:28 58° NE 04:37:31 10° SE
BREEZE-M DEB (TANK) 4.1 04:30:00 28° SSW 04:32:12 64° SE 04:45:08 10° NE
Cosmos 2333 Rocket 2.4 04:33:28 18° S 04:37:46 68° ESE 04:43:26 10° NNE
ADEOS 4.4 04:35:01 10° N 04:39:43 35° WNW 04:42:15 22° WSW
Cosmos 1295 Rocket 4.5 04:39:37 15° SSW 04:44:57 76° W 04:51:19 10° N
Meteor 2-5 Rocket 4.2 04:41:20 10° NNW 04:46:38 42° W 04:50:51 16° SSW
Cosmos 1707 4.0 04:44:23 10° NW 04:47:24 22° W 04:47:54 22° W
Cosmos 1378 4.3 04:46:37 10° NW 04:49:42 25° W 04:50:27 23° WSW
Meteor 1-24 Rocket 3.7 04:45:33 10° NNW 04:50:55 64° W 04:56:26 10° S
Cosmos 1766 3.6 04:49:51 23° SW 04:51:56 47° W 04:55:45 10° N
ERBS 3.3 04:50:31 19° S 04:52:38 40° SE 04:55:53 10° ENE
Cosmos 2278 Rocket 3.2 04:48:19 10° NNW 04:53:50 50° ENE 04:59:18 10° SE
Cosmos 972 4.3 04:50:14 18° SSW 04:53:56 71° WNW 04:58:49 10° NNE
Cosmos 1503 Rocket 4.4 04:49:45 10° NNW 04:54:47 45° WSW 04:59:50 10° S
GENESIS II 4.1 04:54:00 10° NW 04:57:54 67° WSW 05:01:44 10° SSE
OAO 3 Rocket 3.4 04:59:40 15° WSW 05:03:30 53° S 05:08:17 10° ESE
SL-8 Rocket 4.0 04:58:09 10° SSW 05:04:26 72° W 05:10:47 10° N
Cosmos 1812 Rocket 3.8 05:01:27 16° SSW 05:04:47 49° W 05:09:01 10° N
Cosmos 1733 4.4 05:02:49 10° SSE 05:06:30 43° E 05:10:13 10° NNE
SL-16 R/B 3.8 05:03:03 10° SSE 05:08:03 33° ESE 05:13:04 10° NE
ARIANE 5 R/B 4.3 05:05:50 10° NNW 05:09:01 17° WNW 05:12:02 11° W
Abrixas rocket 2.8 05:07:05 17° SSW 05:09:23 49° SE 05:12:37 10° ENE
Meteor 2-15 4.5 05:03:23 10° N 05:09:35 90° W 05:15:43 10° S
ADEOS II 2.1 05:07:29 10° N 05:12:45 79° WNW 05:18:00 10° SSW
USA 161 2.3 05:10:38 12° SSW 05:13:05 33° W 05:15:49 10° NNW
Okean O Rocket 1.8 05:09:07 10° NNE 05:13:35 77° E 05:18:02 10° S
Resurs 1-4 Rocket 4.1 05:11:58 10° NNW 05:14:26 13° WNW 05:16:53 10° W
Cosmos 1674 3.0 05:11:40 10° N 05:15:30 71° E 05:19:20 10° SSE
Okean 3 Rocket 3.7 05:11:46 10° N 05:16:13 82° E 05:20:41 10° S
Lacrosse 5 2.9 05:12:58 10° SSW 05:17:42 40° SE 05:22:27 10° ENE
Cosmos 1844 3.8 05:12:40 10° NNW 05:18:06 51° WSW 05:23:34 10° S
Meteor 2-21 Rocket 4.4 05:13:33 10° SSW 05:19:36 77° W 05:25:45 10° N
Landsat 4 3.7 05:19:01 10° SSE 05:22:44 84° ENE 05:26:29 10° NNW
NOSS 0 Rocket 4.1 05:17:54 10° SW 05:24:01 64° WNW 05:30:12 10° NNE
Intelsat 5-1 Rocket 4.3 05:20:48 10° SW 05:25:00 23° SSE 05:33:36 10° ESE
ATLAS 2AS CENTAUR R/B 4.1 05:18:44 10° WSW 05:25:42 34° NW 05:32:58 10° NNE
Cosmos 1805 4.1 05:22:30 10° SW 05:25:59 33° WNW 05:29:34 10° NNW
Cosmos 1076 Rocket 3.6 05:22:33 10° N 05:26:49 80° E 05:31:04 10° S
Cosmos 1340 Rocket 4.5 05:24:54 10° NW 05:27:25 16° W 05:29:55 10° SW
Cosmos 389 Rocket 4.5 05:25:46 10° WSW 05:27:48 15° WNW 05:29:57 10° NW
Cosmos 1766 Rocket 4.4 05:26:13 10° N 05:30:38 56° E 05:35:00 10° SSE
NOSS 3-4 (A) 3.6 05:26:34 10° SSW 05:32:51 81° ESE 05:39:20 10° NE
NOSS 3-4 (C) 3.6 05:26:39 10° SSW 05:32:55 81° ESE 05:39:24 10° NE
Cosmos 1727 Rocket 4.0 05:26:48 10° N 05:33:00 79° W 05:39:09 10° S
KORONAS-FOTON 4.0 05:29:26 10° N 05:33:22 81° E 05:37:18 10° S
Aureole 2 Rocket 4.5 05:31:19 10° WSW 05:34:23 20° WNW 05:37:23 10° NNW
Cosmos 1356 Rocket 4.1 05:34:26 10° NNW 05:38:01 31° W 05:41:32 10° SSW
SEDSat Delta rocket 3.9 05:39:15 10° WSW 05:42:51 30° S 05:46:43 10° ESE
Meteor 1-21 Rocket 4.4 05:39:08 10° NNW 05:44:49 62° W 05:50:35 10° S
Cosmos 2366 rocket 4.4 05:39:00 10° SSW 05:44:52 46° WNW 05:50:49 10° N
CZ-4B R/B 4.5 05:42:12 10° NNE 05:46:35 68° E 05:50:47 10° S
